• In Belarus
  • List of Countries
  • For 7 days
  • Water Temperature
  • Satellite Maps
  • Weather Map
  • Weather Widgets
  • user-avatar
    Login

    Hourly Weather Igls

    Today, 20 November, Monday

    Time Temperature Precipitation Wind Pressure Humidity
    00:00 -3°C° 0.1 mm 2 mps 685 mmHg 94%
    01:00 -3°C° 0 mm 2 mps 685 mmHg 94%
    02:00 -3°C° 0.1 mm 2 mps 685 mmHg 94%
    03:00 -4°C° 0.1 mm 2 mps 685 mmHg 93%
    04:00 -4°C° 0.1 mm 2 mps 686 mmHg 93%
    05:00 -5°C° 0 mm 2 mps 686 mmHg 91%
    06:00 -6°C° 0 mm 2 mps 686 mmHg 90%
    07:00 -5°C° 0 mm 3 mps 685 mmHg 89%
    08:00 -3°C° 0 mm 2 mps 686 mmHg 85%
    09:00 -1°C° 0 mm 2 mps 686 mmHg 82%
    10:00 +1°C° 0 mm 2 mps 686 mmHg 79%
    11:00 +2°C° 0 mm 2 mps 686 mmHg 76%
    12:00 +3°C° 0 mm 2 mps 686 mmHg 74%
    13:00 +3°C° 0 mm 2 mps 685 mmHg 72%
    14:00 +3°C° 0.2 mm 2 mps 685 mmHg 77%
    15:00 +2°C° 0.2 mm 2 mps 685 mmHg 81%
    16:00 +3°C° 0.2 mm 1 mps 685 mmHg 86%
    17:00 +2°C° 0.3 mm 2 mps 685 mmHg 87%
    18:00 +2°C° 0.3 mm 2 mps 684 mmHg 87%
    19:00 +2°C° 0.3 mm 2 mps 684 mmHg 88%
    20:00 +2°C° 0.2 mm 2 mps 684 mmHg 87%
    21:00 +2°C° 0.2 mm 2 mps 684 mmHg 86%
    22:00 +2°C° 0.2 mm 2 mps 684 mmHg 85%
    23:00 +2°C° 0.1 mm 2 mps 684 mmHg 84%

    Tomorrow, 21 November, Tuesday

    Time Temperature Precipitation Wind Pressure Humidity
    00:00 +3°C° 0.1 mm 2 mps 684 mmHg 84%
    01:00 +3°C° 0.1 mm 2 mps 684 mmHg 83%
    02:00 +3°C° 0.2 mm 2 mps 684 mmHg 84%
    03:00 +2°C° 0.2 mm 2 mps 684 mmHg 86%
    04:00 +2°C° 0.2 mm 2 mps 684 mmHg 88%
    05:00 +3°C° 0.6 mm 2 mps 684 mmHg 89%
    06:00 +3°C° 0.6 mm 2 mps 684 mmHg 90%
    07:00 +4°C° 0.6 mm 2 mps 684 mmHg 92%
    08:00 +5°C° 0.3 mm 2 mps 684 mmHg 92%
    09:00 +5°C° 0.3 mm 2 mps 684 mmHg 92%
    10:00 +6°C° 0.3 mm 2 mps 685 mmHg 92%
    11:00 +7°C° 0.1 mm 2 mps 685 mmHg 92%
    12:00 +7°C° 0.1 mm 2 mps 684 mmHg 93%
    13:00 +8°C° 0.1 mm 2 mps 684 mmHg 93%
    14:00 +8°C° 0.2 mm 2 mps 684 mmHg 93%
    15:00 +7°C° 0.2 mm 2 mps 684 mmHg 92%
    16:00 +7°C° 0.2 mm 2 mps 684 mmHg 92%
    17:00 +6°C° 0.1 mm 2 mps 684 mmHg 91%
    18:00 +5°C° 0.1 mm 2 mps 684 mmHg 90%
    19:00 +4°C° 0.1 mm 2 mps 684 mmHg 89%
    20:00 +4°C° 0 mm 2 mps 684 mmHg 88%
    21:00 +4°C° 0 mm 2 mps 684 mmHg 87%
    22:00 +3°C° 0 mm 2 mps 684 mmHg 85%
    23:00 +3°C° 0 mm 2 mps 684 mmHg 84%

    Day after tomorrow, 22 November, Wednesday

    Time Temperature Precipitation Wind Pressure Humidity
    00:00 +3°C° 0 mm 2 mps 684 mmHg 82%
    01:00 +3°C° 0 mm 2 mps 684 mmHg 80%
    02:00 +3°C° 0 mm 2 mps 684 mmHg 79%
    03:00 +3°C° 0 mm 2 mps 684 mmHg 78%
    04:00 +3°C° 0 mm 2 mps 684 mmHg 76%
    05:00 +3°C° 0 mm 2 mps 684 mmHg 76%
    06:00 +3°C° 0 mm 2 mps 684 mmHg 75%
    07:00 +3°C° 0 mm 2 mps 684 mmHg 74%
    08:00 +4°C° 0 mm 2 mps 684 mmHg 76%
    09:00 +6°C° 0 mm 2 mps 684 mmHg 77%
    10:00 +7°C° 0 mm 2 mps 684 mmHg 79%
    11:00 +8°C° 0 mm 2 mps 684 mmHg 82%
    12:00 +9°C° 0 mm 2 mps 684 mmHg 85%
    13:00 +11°C° 0 mm 1 mps 684 mmHg 88%
    14:00 +9°C° 0 mm 2 mps 683 mmHg 86%
    15:00 +8°C° 0 mm 2 mps 683 mmHg 84%
    16:00 +7°C° 0 mm 2 mps 683 mmHg 81%
    17:00 +6°C° 0 mm 2 mps 683 mmHg 80%
    18:00 +5°C° 0 mm 2 mps 683 mmHg 80%
    19:00 +4°C° 0 mm 2 mps 683 mmHg 79%
    20:00 +4°C° 0 mm 2 mps 683 mmHg 79%
    21:00 +4°C° 0 mm 2 mps 683 mmHg 78%
    22:00 +3°C° 0 mm 2 mps 683 mmHg 78%
    23:00 +2°C° 0 mm 3 mps 683 mmHg 78%

    23 November, Thursday

    Time Temperature Precipitation Wind Pressure Humidity
    00:00 +2°C° 0 mm 3 mps 683 mmHg 78%
    01:00 +2°C° 0 mm 3 mps 683 mmHg 78%
    02:00 +2°C° 0 mm 3 mps 683 mmHg 78%
    03:00 +3°C° 0 mm 2 mps 683 mmHg 78%
    04:00 +3°C° 0 mm 2 mps 683 mmHg 78%
    05:00 +3°C° 0 mm 2 mps 684 mmHg 76%
    06:00 +3°C° 0 mm 2 mps 684 mmHg 75%
    07:00 +3°C° 0 mm 2 mps 684 mmHg 74%
    08:00 +4°C° 0 mm 2 mps 685 mmHg 74%
    09:00 +7°C° 0 mm 1 mps 685 mmHg 74%
    10:00 +9°C° 0 mm 1 mps 685 mmHg 73%
    11:00 +10°C° 0 mm 1 mps 686 mmHg 77%
    12:00 +11°C° 0 mm 1 mps 686 mmHg 80%
    13:00 +12°C° 0 mm 1 mps 686 mmHg 84%
    14:00 +10°C° 0 mm 1 mps 686 mmHg 79%
    15:00 +9°C° 0 mm 1 mps 686 mmHg 75%
    16:00 +8°C° 0 mm 1 mps 686 mmHg 71%
    17:00 +7°C° 0 mm 1 mps 686 mmHg 70%
    18:00 +6°C° 0 mm 1 mps 686 mmHg 69%
    19:00 +5°C° 0 mm 1 mps 687 mmHg 68%
    20:00 +5°C° 0 mm 1 mps 687 mmHg 68%
    21:00 +4°C° 0 mm 2 mps 688 mmHg 67%
    22:00 +3°C° 0 mm 2 mps 688 mmHg 67%
    23:00 +3°C° 0 mm 2 mps 688 mmHg 67%

    24 November, Friday

    Time Temperature Precipitation Wind Pressure Humidity
    00:00 +4°C° 0 mm 2 mps 688 mmHg 67%
    01:00 +4°C° 0 mm 2 mps 688 mmHg 67%
    02:00 +4°C° 0 mm 2 mps 688 mmHg 68%
    03:00 +4°C° 0 mm 2 mps 688 mmHg 68%
    04:00 +4°C° 0 mm 2 mps 688 mmHg 68%
    05:00 +4°C° 0 mm 2 mps 688 mmHg 67%
    06:00 +4°C° 0 mm 2 mps 688 mmHg 67%
    07:00 +4°C° 0 mm 2 mps 688 mmHg 67%
    08:00 +5°C° 0 mm 2 mps 688 mmHg 68%
    09:00 +6°C° 0 mm 2 mps 688 mmHg 69%
    10:00 +8°C° 0 mm 2 mps 688 mmHg 69%
    11:00 +9°C° 0 mm 2 mps 688 mmHg 72%
    12:00 +10°C° 0 mm 2 mps 688 mmHg 74%
    13:00 +12°C° 0 mm 2 mps 688 mmHg 77%
    14:00 +10°C° 0 mm 2 mps 687 mmHg 75%
    15:00 +8°C° 0 mm 2 mps 687 mmHg 73%
    16:00 +7°C° 0 mm 2 mps 687 mmHg 72%
    17:00 +6°C° 0 mm 2 mps 687 mmHg 70%
    18:00 +5°C° 0 mm 2 mps 687 mmHg 69%
    19:00 +4°C° 0 mm 2 mps 687 mmHg 68%
    20:00 +4°C° 0 mm 2 mps 687 mmHg 67%
    21:00 +4°C° 0 mm 2 mps 687 mmHg 66%
    22:00 +4°C° 0 mm 2 mps 687 mmHg 66%
    23:00 +3°C° 0 mm 3 mps 687 mmHg 66%

    25 November, Saturday

    Time Temperature Precipitation Wind Pressure Humidity
    00:00 +3°C° 0 mm 3 mps 687 mmHg 66%
    01:00 +3°C° 0 mm 3 mps 687 mmHg 66%
    02:00 +3°C° 0 mm 3 mps 687 mmHg 66%
    03:00 +3°C° 0 mm 3 mps 687 mmHg 67%
    04:00 +3°C° 0 mm 3 mps 686 mmHg 67%
    05:00 +3°C° 0 mm 3 mps 686 mmHg 67%
    06:00 +3°C° 0 mm 3 mps 686 mmHg 67%
    07:00 +3°C° 0 mm 3 mps 686 mmHg 67%
    08:00 +4°C° 0 mm 3 mps 686 mmHg 68%
    09:00 +7°C° 0 mm 2 mps 686 mmHg 69%
    10:00 +8°C° 0 mm 2 mps 686 mmHg 70%
    11:00 +8°C° 0 mm 2 mps 686 mmHg 72%
    12:00 +9°C° 0 mm 2 mps 686 mmHg 73%
    13:00 +10°C° 0 mm 2 mps 685 mmHg 75%
    14:00 +9°C° 0 mm 2 mps 685 mmHg 77%
    15:00 +8°C° 0 mm 2 mps 685 mmHg 78%
    16:00 +7°C° 0 mm 2 mps 685 mmHg 80%
    17:00 +6°C° 0 mm 2 mps 685 mmHg 81%
    18:00 +5°C° 0 mm 2 mps 685 mmHg 82%
    19:00 +5°C° 0 mm 2 mps 686 mmHg 83%
    20:00 +4°C° 0 mm 2 mps 686 mmHg 83%
    21:00 +4°C° 0 mm 2 mps 686 mmHg 84%
    22:00 +4°C° 0 mm 2 mps 686 mmHg 84%
    23:00 +4°C° 0 mm 2 mps 686 mmHg 85%
    Show more